CW3359 Weather Reports


time (UTC)temp
C
wind
direction
speed
KPH
gust
KPH
rain 1hr
cm
rain 24hr
cm
rain mn
cm
humidity
%
barometer
mb
20190817134214 20 277 11.3 29.0 0.00 0.08 0.08 67 1010.5
20190817133717 20 262 12.9 29.0 0.00 0.08 0.08 66 1010.5
20190817133207 20 281 6.4 16.1 0.00 0.08 0.08 66 1010.6
20190817132718 20 227 4.8 12.9 0.00 0.08 0.08 68 1010.6
20190817132219 20 253 4.8 17.7 0.00 0.08 0.08 68 1010.4
20190817131710 20 234 8.0 22.5 0.00 0.08 0.08 67 1010.4
20190817131207 20 267 9.7 27.4 0.00 0.08 0.08 67 1010.5
20190817130718 20 251 9.7 27.4 0.00 0.08 0.08 67 1010.6
20190817130204 20 204 9.7 27.4 0.00 0.08 0.08 67 1010.5
20190817125708 20 263 9.7 25.7 0.00 0.08 0.08 66 1010.3
20190817125207 20 280 8.0 25.7 0.00 0.08 0.08 66 1010.3
20190817124709 20 252 6.4 24.1 0.00 0.08 0.08 66 1010.2
20190817124207 21 242 6.4 20.9 0.00 0.08 0.08 66 1010.2
20190817123709 21 206 6.4 19.3 0.00 0.08 0.08 66 1010.1
20190817123208 20 259 6.4 19.3 0.00 0.08 0.08 66 1010.1
20190817122719 20 223 6.4 30.6 0.00 0.08 0.08 67 1010.1
20190817122215 21 229 8.0 30.6 0.00 0.08 0.08 67 1010.1
20190817121705 21 184 8.0 30.6 0.00 0.08 0.08 67 1010.0
20190817121217 21 192 8.0 19.3 0.00 0.08 0.08 67 1010.1
20190817120710 21 217 4.8 19.3 0.00 0.08 0.08 67 1010.2
20190817120205 21 223 4.8 19.3 0.00 0.08 0.08 67 1010.2
20190817115715 21 269 9.7 19.3 0.00 0.08 0.08 67 1010.2
20190817115214 21 225 8.0 19.3 0.00 0.08 0.08 67 1010.2
20190817114704 21 272 6.4 19.3 0.00 0.08 0.08 67 1010.2
20190817114208 21 215 8.0 24.1 0.00 0.08 0.08 67 1010.2
20190817113705 21 225 9.7 24.1 0.00 0.08 0.08 68 1010.3
20190817113207 21 186 8.0 20.9 0.00 0.08 0.08 68 1010.3
20190817112714 21 188 6.4 17.7 0.00 0.08 0.08 69 1010.4
20190817112212 21 253 8.0 17.7 0.00 0.08 0.08 69 1010.4
20190817111716 21 221 6.4 19.3 0.00 0.08 0.08 69 1010.4
20190817111205 21 242 8.0 19.3 0.00 0.08 0.08 70 1010.4
20190817110717 20 232 9.7 20.9 0.00 0.08 0.08 70 1010.3
20190817110217 20 203 8.0 20.9 0.00 0.08 0.08 70 1010.4
20190817105707 20 188 9.7 20.9 0.00 0.08 0.08 72 1010.5
20190817105218 20 250 6.4 14.5 0.00 0.08 0.08 73 1010.4
20190817104708 20 208 3.2 11.3 0.00 0.08 0.08 75 1010.4
20190817104211 20 173 3.2 11.3 0.00 0.08 0.08 76 1010.3
20190817103718 20 212 1.6 11.3 0.00 0.08 0.08 76 1010.4
20190817103215 19 200 3.2 16.1 0.00 0.08 0.08 76 1010.4
20190817102709 19 206 3.2 16.1 0.00 0.08 0.08 76 1010.3
20190817102207 19 177 4.8 16.1 0.00 0.08 0.08 76 1010.3
20190817101713 19 242 3.2 16.1 0.00 0.08 0.08 77 1010.3
20190817101219 19 171 1.6 11.3 0.00 0.08 0.08 77 1010.2
20190817100707 18 198 1.6 16.1 0.00 0.08 0.08 78 1010.4
20190817100213 18 163 3.2 16.1 0.00 0.08 0.08 78 1010.5
20190817095712 18 186 3.2 16.1 0.00 0.08 0.08 78 1010.5
20190817095204 18 184 1.6 9.7 0.00 0.08 0.08 79 1010.6
20190817094711 18 192 0.0 9.7 0.00 0.08 0.08 80 1010.7
20190817094204 18 138 0.0 9.7 0.00 0.08 0.08 80 1010.6
20190817093705 18 171 0.0 1.6 0.00 0.08 0.08 80 1010.7
20190817093212 18 171 0.0 1.6 0.00 0.08 0.08 80 1010.8
20190817092714 18 171 0.0 6.4 0.00 0.08 0.08 80 1010.9
20190817092213 18 171 0.0 6.4 0.00 0.08 0.08 80 1011.0
20190817091719 18 180 0.0 6.4 0.03 0.08 0.08 80 1011.1
20190817091211 18 209 0.0 1.6 0.03 0.08 0.08 80 1011.1
20190817090704 18 223 0.0 1.6 0.03 0.08 0.08 80 1011.2
20190817090209 18 223 0.0 1.6 0.03 0.08 0.08 80 1011.1
20190817085709 18 205 0.0 3.2 0.03 0.08 0.08 80 1011.0
20190817085211 18 170 0.0 8.0 0.03 0.08 0.08 81 1010.9
20190817084712 18 219 0.0 8.0 0.03 0.08 0.08 81 1010.9
20190817084216 18 223 1.6 8.0 0.03 0.08 0.08 81 1010.9
20190817083705 17 223 0.0 4.8 0.03 0.08 0.08 81 1010.8
20190817083208 17 155 0.0 8.0 0.03 0.08 0.08 82 1010.8
20190817082712 17 153 0.0 8.0 0.03 0.08 0.08 82 1010.7
20190817082215 17 153 0.0 8.0 0.03 0.08 0.08 82 1010.7
20190817081709 17 153 0.0 0.0 0.00 0.05 0.05 82 1010.8
20190817081204 17 181 0.0 0.0 0.00 0.05 0.05 83 1010.8
20190817080713 17 209 0.0 0.0 0.03 0.05 0.05 83 1010.9
20190817080213 17 209 0.0 0.0 0.03 0.05 0.05 83 1010.9
20190817075706 16 208 0.0 0.0 0.03 0.05 0.05 83 1010.9
20190817075205 16 208 0.0 0.0 0.05 0.05 0.05 84 1011.0
20190817074708 16 208 0.0 0.0 0.05 0.05 0.05 84 1010.9
20190817074207 16 208 0.0 0.0 0.05 0.05 0.05 83 1010.9
20190817073716 16 208 0.0 0.0 0.05 0.05 0.05 84 1010.8
20190817073211 16 208 0.0 0.0 0.05 0.05 0.05 83 1010.7
20190817072707 16 208 0.0 0.0 0.05 0.05 0.05 83 1010.7
20190817072214 16 208 0.0 0.0 0.05 0.05 0.05 83 1010.7
20190817071717 16 209 0.0 0.0 0.05 0.05 0.05 83 1010.8
20190817071206 16 208 0.0 0.0 0.05 0.05 0.05 83 1010.9
20190817070710 16 208 0.0 0.0 0.05 0.05 0.05 83 1010.9
20190817070208 16 209 0.0 0.0 0.05 0.05 0.05 83 1011.1
20190817065718 16 209 0.0 0.0 0.05 0.05 0.05 83 1011.1
20190817065211 16 209 0.0 0.0 0.03 0.03 0.03 83 1011.1
20190817064707 16 208 0.0 0.0 0.03 0.03 0.00 83 1011.2
20190817064213 16 208 0.0 0.0 0.00 0.00 0.00 83 1011.2
20190817063709 16 179 0.0 0.0 0.00 0.00 0.00 83 1011.1
20190817063207 16 166 0.0 0.0 0.00 0.00 0.00 83 1010.9
20190817062712 16 166 0.0 0.0 0.00 0.00 0.00 83 1010.8
20190817062216 16 166 0.0 0.0 0.00 0.00 0.00 83 1010.8
20190817061715 16 166 0.0 0.0 0.00 0.00 0.00 83 1010.8
20190817061208 16 166 0.0 0.0 0.00 0.00 0.00 83 1010.7
20190817060705 16 166 0.0 0.0 0.00 0.00 0.00 83 1010.7
20190817060214 16 166 0.0 0.0 0.00 0.00 0.00 83 1010.7
20190817055715 16 166 0.0 0.0 0.00 0.00 0.00 83 1010.6
20190817055218 16 166 0.0 0.0 0.00 0.00 0.00 83 1010.8
20190817054705 15 166 0.0 0.0 0.00 0.00 0.00 83 1010.7
20190817054205 15 166 0.0 0.0 0.00 0.00 0.00 83 1010.5
20190817053717 15 166 0.0 0.0 0.00 0.00 0.00 83 1010.3
20190817053209 15 165 0.0 0.0 0.00 0.00 0.00 83 1010.3
20190817052707 15 165 0.0 0.0 0.00 0.00 0.00 83 1010.3
20190817052209 15 165 0.0 0.0 0.00 0.00 0.00 83 1010.3
20190817051715 15 165 0.0 0.0 0.00 0.00 0.00 83 1010.2
20190817051216 15 165 0.0 0.0 0.00 0.00 0.00 83 1010.1
20190817050707 15 165 0.0 0.0 0.00 0.00 0.00 83 1010.1
20190817050210 15 165 0.0 0.0 0.00 0.00 0.00 83 1010.2
20190817045712 15 165 0.0 0.0 0.00 0.00 0.00 83 1010.2
20190817045219 15 165 0.0 0.0 0.00 0.00 0.00 83 1010.2
20190817044715 15 165 0.0 0.0 0.00 0.00 0.00 82 1010.3
20190817044206 15 165 0.0 0.0 0.00 0.00 0.00 82 1010.4
20190817043704 15 165 0.0 0.0 0.00 0.00 0.00 83 1010.4
20190817043216 15 165 0.0 0.0 0.00 0.00 0.00 83 1010.1
20190817042710 15 165 0.0 0.0 0.00 0.00 0.00 82 1010.1
20190817042208 15 165 0.0 0.0 0.00 0.00 0.00 82 1010.3
20190817041716 15 165 0.0 0.0 0.00 0.00 0.00 82 1010.3
20190817041205 15 165 0.0 0.0 0.00 0.00 0.00 82 1010.5
20190817040708 15 165 0.0 0.0 0.00 0.00 0.00 82 1010.4
20190817040212 15 165 0.0 0.0 0.00 0.00 0.00 82 1010.6
20190817035715 15 165 0.0 0.0 0.00 0.00 0.00 82 1010.5
20190817035215 15 165 0.0 0.0 0.00 0.00 0.00 82 1010.3
20190817034717 15 165 0.0 0.0 0.00 0.00 0.00 82 1010.2
20190817034213 15 165 0.0 0.0 0.00 0.00 0.00 82 1010.2
20190817033715 15 165 0.0 0.0 0.00 0.00 0.00 82 1010.2
20190817033207 15 165 0.0 0.0 0.00 0.00 0.00 82 1010.2
20190817032705 15 165 0.0 0.0 0.00 0.00 0.00 82 1010.3
20190817032210 15 165 0.0 0.0 0.00 0.00 0.00 82 1010.3
20190817031708 15 165 0.0 0.0 0.00 0.00 0.00 82 1010.4
20190817031217 15 165 0.0 0.0 0.00 0.00 0.00 82 1010.5
20190817030714 15 165 0.0 0.0 0.00 0.00 0.00 82 1010.4
20190817030207 15 165 0.0 0.0 0.00 0.00 0.00 82 1010.2
20190817025715 15 165 0.0 0.0 0.00 0.00 0.00 82 1010.3
20190817025205 15 165 0.0 0.0 0.00 0.00 0.00 82 1010.4
20190817024705 15 165 0.0 0.0 0.00 0.00 0.00 82 1010.3
20190817024209 15 165 0.0 0.0 0.00 0.00 0.00 82 1010.5
20190817023708 15 165 0.0 0.0 0.00 0.00 0.00 82 1010.6
20190817023205 15 165 0.0 0.0 0.00 0.00 0.00 82 1010.6
20190817022707 15 165 0.0 0.0 0.00 0.00 0.00 82 1010.8
20190817022205 15 165 0.0 0.0 0.00 0.00 0.00 82 1010.7
20190817021711 15 165 0.0 0.0 0.00 0.00 0.00 82 1010.8
20190817021213 15 165 0.0 0.0 0.00 0.00 0.00 82 1010.9
20190817020711 15 165 0.0 0.0 0.00 0.00 0.00 82 1010.9
20190817020215 15 165 0.0 0.0 0.00 0.00 0.00 81 1010.7
20190817015708 15 165 0.0 0.0 0.00 0.00 0.00 81 1010.9
20190817015213 15 165 0.0 0.0 0.00 0.00 0.00 81 1010.8
20190817014708 15 165 0.0 0.0 0.00 0.00 0.00 81 1010.9
20190817014213 15 165 0.0 0.0 0.00 0.00 0.00 81 1010.9
20190817013711 15 165 0.0 0.0 0.00 0.00 0.00 81 1010.9
20190817013213 15 165 0.0 0.0 0.00 0.00 0.00 81 1011.0
20190817012706 15 165 0.0 0.0 0.00 0.00 0.00 81 1011.1
20190817012209 15 165 0.0 0.0 0.00 0.00 0.00 81 1011.1
20190817011715 15 165 0.0 0.0 0.00 0.00 0.00 81 1011.1
20190817011207 15 165 0.0 0.0 0.00 0.00 0.00 81 1011.1
20190817010715 15 165 0.0 0.0 0.00 0.00 0.00 80 1011.2
20190817010213 15 165 0.0 0.0 0.00 0.00 0.00 81 1011.3
20190817005719 15 165 0.0 0.0 0.00 0.00 0.00 80 1011.3
20190817005207 15 165 0.0 0.0 0.00 0.00 0.00 80 1011.3
20190817004711 15 165 0.0 0.0 0.00 0.00 0.00 81 1011.2
20190817004205 15 165 0.0 0.0 0.00 0.00 0.00 80 1011.2
20190817003714 16 165 0.0 0.0 0.00 0.00 0.00 80 1011.3
20190817003206 16 165 0.0 0.0 0.00 0.00 0.00 80 1011.4
20190817002706 16 165 0.0 0.0 0.00 0.00 0.00 80 1011.6
20190817002213 16 165 0.0 0.0 0.00 0.00 0.00 80 1011.7
20190817001710 16 165 0.0 0.0 0.00 0.00 0.00 80 1011.7
20190817001219 16 165 0.0 0.0 0.00 0.00 0.00 80 1011.7
20190817000717 16 165 0.0 0.0 0.00 0.00 0.00 80 1011.8
20190817000211 16 165 0.0 0.0 0.00 0.00 0.00 80 1011.8
20190816235712 16 165 0.0 0.0 0.00 0.00 0.00 79 1011.8
20190816235209 16 165 0.0 0.0 0.00 0.03 0.00 79 1011.8
20190816234704 16 165 0.0 0.0 0.00 0.03 0.00 79 1011.8
20190816234212 16 165 0.0 0.0 0.00 0.03 0.00 79 1011.8
20190816233710 16 165 0.0 0.0 0.00 0.03 0.00 79 1012.0
20190816233216 16 165 0.0 0.0 0.00 0.03 0.00 79 1012.0
20190816232716 16 165 0.0 0.0 0.00 0.05 0.00 79 1012.0
20190816232213 16 165 0.0 0.0 0.00 0.05 0.00 79 1012.1
20190816231705 16 165 0.0 0.0 0.00 0.05 0.00 79 1012.0
20190816231207 16 165 0.0 0.0 0.00 0.08 0.00 78 1012.1
20190816230708 16 165 0.0 0.0 0.00 0.08 0.00 78 1012.1
20190816230205 16 165 0.0 0.0 0.00 0.08 0.00 78 1012.1
20190816225704 16 165 0.0 0.0 0.00 0.08 0.00 78 1012.1
20190816225205 16 165 0.0 0.0 0.00 0.08 0.00 78 1012.2
20190816224715 16 165 0.0 0.0 0.00 0.08 0.00 78 1012.2
20190816224218 16 165 0.0 0.0 0.00 0.08 0.00 78 1012.3
20190816223709 16 165 0.0 0.0 0.00 0.08 0.00 78 1012.4
20190816223215 16 165 0.0 0.0 0.00 0.08 0.00 79 1012.4
20190816222713 16 165 0.0 0.0 0.00 0.08 0.00 78 1012.5
20190816222219 16 165 0.0 0.0 0.00 0.08 0.00 78 1012.4
20190816221707 16 165 0.0 0.0 0.00 0.08 0.00 78 1012.4
20190816221205 16 165 0.0 0.0 0.00 0.08 0.00 78 1012.3
20190816220709 16 165 0.0 0.0 0.00 0.08 0.00 77 1012.4
20190816220219 16 165 0.0 0.0 0.00 0.08 0.08 77 1012.5
20190816215710 16 165 0.0 0.0 0.00 0.08 0.08 77 1012.5
20190816215216 16 165 0.0 0.0 0.00 0.08 0.08 77 1012.5
20190816214717 16 165 0.0 0.0 0.00 0.08 0.08 76 1012.6
20190816214216 17 165 0.0 0.0 0.00 0.08 0.08 75 1012.6
20190816213711 17 165 0.0 0.0 0.00 0.08 0.08 75 1012.7
20190816213211 17 165 0.0 0.0 0.00 0.08 0.08 75 1012.7
20190816212714 17 165 0.0 0.0 0.00 0.08 0.08 75 1012.8
20190816212207 17 165 0.0 0.0 0.00 0.08 0.08 75 1012.9
20190816211707 17 165 0.0 0.0 0.00 0.08 0.08 75 1012.8
20190816211211 17 165 0.0 0.0 0.00 0.08 0.08 75 1012.8
20190816210711 17 165 0.0 0.0 0.00 0.08 0.08 74 1012.7
20190816210209 17 165 0.0 0.0 0.00 0.08 0.08 74 1012.7
20190816205707 17 165 0.0 0.0 0.00 0.08 0.08 74 1012.7
20190816205205 17 165 0.0 0.0 0.00 0.08 0.08 74 1012.7
20190816204713 17 165 0.0 0.0 0.00 0.08 0.08 74 1012.7
20190816204208 17 165 0.0 0.0 0.00 0.08 0.08 73 1012.7
20190816203710 17 165 0.0 0.0 0.00 0.08 0.08 73 1012.7
20190816203210 18 165 0.0 0.0 0.00 0.08 0.08 72 1012.7
20190816202714 18 165 0.0 0.0 0.00 0.08 0.08 72 1012.6
20190816202219 18 165 0.0 0.0 0.00 0.08 0.08 71 1012.6
20190816201717 18 165 0.0 0.0 0.00 0.08 0.08 71 1012.6
20190816201207 18 165 0.0 0.0 0.00 0.08 0.08 70 1012.6
20190816200708 18 165 0.0 0.0 0.00 0.08 0.08 70 1012.7
20190816200205 18 165 0.0 0.0 0.00 0.08 0.08 69 1012.7
20190816195711 18 165 0.0 0.0 0.00 0.08 0.08 68 1012.7
20190816195213 18 165 0.0 0.0 0.00 0.08 0.08 66 1012.8
20190816194718 19 165 0.0 0.0 0.00 0.08 0.08 65 1012.8
20190816194212 19 165 0.0 0.0 0.00 0.08 0.08 65 1012.9
20190816193713 19 165 0.0 0.0 0.00 0.08 0.08 65 1012.8
20190816193214 19 165 0.0 0.0 0.00 0.08 0.08 65 1012.8
20190816192705 19 165 0.0 0.0 0.00 0.08 0.08 65 1012.7
20190816192208 20 165 0.0 0.0 0.00 0.08 0.08 65 1012.8
20190816191713 20 165 0.0 0.0 0.00 0.08 0.08 64 1012.8
20190816191208 20 165 0.0 0.0 0.00 0.08 0.08 63 1012.8
20190816190707 20 165 0.0 0.0 0.00 0.08 0.08 63 1012.7
20190816190216 20 165 0.0 0.0 0.00 0.08 0.08 63 1012.7
20190816185715 20 165 0.0 0.0 0.00 0.08 0.08 61 1012.7
20190816185207 20 165 0.0 0.0 0.00 0.08 0.08 61 1012.7
20190816184705 21 165 0.0 0.0 0.00 0.08 0.08 60 1012.8
20190816184211 21 165 0.0 0.0 0.00 0.08 0.08 59 1012.7
20190816183707 21 165 0.0 0.0 0.00 0.08 0.08 58 1012.8
20190816183205 21 165 0.0 0.0 0.00 0.08 0.08 57 1012.8
20190816182710 22 165 0.0 0.0 0.00 0.08 0.08 54 1012.7
20190816182212 22 165 0.0 0.0 0.00 0.10 0.08 54 1012.7
20190816181708 22 165 0.0 0.0 0.00 0.10 0.08 52 1012.7
20190816181206 22 165 0.0 1.6 0.00 0.10 0.08 51 1012.7
20190816180711 22 165 0.0 12.9 0.00 0.13 0.08 51 1012.7
20190816180218 23 165 0.0 12.9 0.00 0.13 0.08 50 1012.8
20190816175709 23 165 0.0 12.9 0.00 0.13 0.08 49 1012.8
20190816175216 23 205 0.0 11.3 0.00 0.13 0.08 48 1012.9
20190816174715 23 205 1.6 11.3 0.00 0.13 0.08 47 1012.9
20190816174214 23 168 3.2 12.9 0.00 0.13 0.08 46 1013.0
20190816173711 23 224 3.2 14.5 0.00 0.13 0.08 46 1013.0
20190816173219 24 196 3.2 14.5 0.00 0.13 0.08 46 1013.1
20190816172714 24 260 3.2 14.5 0.00 0.13 0.08 46 1013.0
20190816172215 24 239 3.2 16.1 0.00 0.13 0.08 44 1013.0
20190816171712 25 233 3.2 16.1 0.00 0.13 0.08 44 1013.0
20190816171207 24 242 3.2 16.1 0.00 0.13 0.08 44 1013.0
20190816170715 24 273 3.2 12.9 0.00 0.13 0.08 45 1013.0
20190816170213 24 218 4.8 17.7 0.00 0.13 0.08 44 1013.0
20190816165716 24 232 4.8 17.7 0.00 0.13 0.08 44 1013.1
20190816165217 24 248 3.2 17.7 0.00 0.13 0.08 44 1013.1
20190816164708 25 227 3.2 11.3 0.00 0.13 0.08 44 1013.2
20190816164206 25 238 3.2 11.3 0.00 0.13 0.08 45 1013.2
20190816163715 24 271 1.6 9.7 0.00 0.13 0.08 45 1013.2
20190816163218 24 199 1.6 12.9 0.00 0.13 0.08 45 1013.3
20190816162713 24 169 3.2 12.9 0.00 0.13 0.08 44 1013.3
20190816162209 24 291 4.8 12.9 0.00 0.13 0.08 45 1013.3
20190816161718 24 177 4.8 12.9 0.00 0.13 0.08 44 1013.4
20190816161211 25 241 4.8 14.5 0.00 0.13 0.08 44 1013.5
20190816160718 24 269 3.2 14.5 0.00 0.13 0.08 45 1013.6
20190816160205 25 232 4.8 16.1 0.00 0.13 0.08 45 1013.6
20190816155714 25 212 3.2 16.1 0.00 0.13 0.08 45 1013.7
20190816155205 25 292 3.2 16.1 0.00 0.13 0.08 45 1013.8
20190816154717 24 280 3.2 16.1 0.00 0.13 0.08 45 1013.9
20190816154211 24 279 1.6 12.9 0.00 0.13 0.08 46 1013.9
20190816153713 23 205 1.6 12.9 0.00 0.13 0.08 47 1014.0
20190816153210 24 213 3.2 16.1 0.00 0.13 0.08 46 1014.0
20190816152710 25 175 4.8 16.1 0.00 0.13 0.08 44 1014.0
20190816152207 25 191 4.8 16.1 0.00 0.13 0.08 42 1013.9
20190816151713 25 209 4.8 16.1 0.00 0.13 0.08 43 1014.0
20190816151209 25 283 3.2 19.3 0.00 0.13 0.08 43 1014.0
20190816150711 25 280 4.8 19.3 0.00 0.13 0.08 45 1014.1
20190816150205 25 278 8.0 19.3 0.00 0.13 0.08 43 1014.1
20190816145717 25 282 6.4 17.7 0.00 0.13 0.08 43 1014.2
20190816145218 25 254 1.6 25.7 0.00 0.13 0.08 43 1014.2
20190816144718 25 287 1.6 25.7 0.00 0.13 0.08 43 1014.3
20190816144210 25 242 1.6 12.9 0.00 0.13 0.08 43 1014.4
20190816143713 25 254 1.6 12.9 0.00 0.13 0.08 42 1014.5
20190816143207 25 253 4.8 16.1 0.00 0.13 0.08 44 1014.6
20190816142714 25 279 4.8 19.3 0.00 0.13 0.08 44 1014.6
20190816142214 25 260 6.4 19.3 0.00 0.13 0.08 45 1014.7
20190816141717 25 261 8.0 19.3 0.00 0.13 0.08 45 1014.8
20190816141206 24 273 4.8 19.3 0.00 0.13 0.08 46 1014.8
20190816140714 24 289 4.8 19.3 0.00 0.13 0.08 44 1014.9
20190816140218 24 240 6.4 19.3 0.00 0.13 0.08 45 1015.0
20190816135712 24 242 3.2 12.9 0.00 0.13 0.08 46 1015.0
20190816135214 23 244 4.8 12.9 0.00 0.13 0.08 46 1015.1
20190816134714 23 239 3.2 12.9 0.00 0.13 0.08 49 1015.2